Tracking 29892 objects as of 21-Nov-2024
HD Live streaming from Space Station
objects crossing your sky now

CZ-4C DEB

Track CZ-4C DEB now!
10-day predictions


NORAD ID: 45483
Int'l Code: 2018-034L
Perigee: 938.8 km
Apogee: 1,263.0 km
Inclination: 63.4 °
Period: 107.1 minutes
Semi major axis: 7471 km
RCS: Unknown
Launch date: April 10, 2018
Source: People's Republic of China (PRC)
Launch site: Jiuquan Satellite Launch Center, China (JSC)

Note: This is SATELLITE DEBRIS
Your satellite tracking list
Your tracking list is empty




NASA's NSSDC Master Catalog

Two Line Element Set (TLE):
1 45483U 18034L   24297.47492814  .00000135  00000-0  33558-3 0  9999
2 45483  63.4002 213.3232 0216933   5.6865 354.6548 13.44181652283622
Source of the keplerian elements: AFSPC